Location: Nitra
(0.0000°N, 18.0833°E)
Time: 09:08:00
(UTC+02:00)

A-11 Canister half - Pass Details

Date: 01 April 2023
Orbit: 1513 x 1686 km, 47.2° (Epoch: 02 June)

Event Time Altitude Azimuth Distance (km) Brightness Sun altitude
Exits shadow 03:22:53 16° 18° (NNE) 3,471 10.9 -52.0°
Maximum altitude 03:26:59 20° 46° (NE) 3,175 10.9 -51.0°
Drops below altitude 10° 03:33:45 10° 90° (E) 3,895 11.6 -49.3°
Sets 03:38:01 0° 106° (ESE) 4,857 12.2 -48.2°
